Flag for Switzerland Weather past 2 weeks in Binningen, Basel-Land, Switzerland

Now
44 °F

Passing clouds.


Feels Like: 40 °F
Forecast: 32 / 54 °F
Wind: 8 mph from West

Location: Bale-Mulhouse

Current Time: Mar 27, 2015 at 10:09:30 PM

Latest Report: Mar 27, 2015 at 9:00 PM


Visibility: 19 mi

Pressure: 30.28 "Hg

Humidity: 61%

Dew point: 31 °F

Location of BinningenLocation

Historic Weather in Binningen — Graph

°F

Binningen temperature yesterday

Maximum temperature yesterday: 46 °F (at 5:00 PM)
Minimum temperature yesterday: 40 °F (at 4:00 AM)
Average temperature yesterday: 43 °F

Past Weeks' High & Low Weather Summary

 TemperatureHumidityPressure
High64 °F (Mar 18, 4:00 PM)100% (Mar 15, 7:00 AM)30.28 "Hg (Mar 15, 7:00 AM)
Low26 °F (Mar 13, 6:00 AM)36% (Mar 17, 3:00 PM)29.66 "Hg (Mar 25, 10:00 AM)
Average44 °F72%30.08 "Hg
* Reported Mar 12 8:00 PM — Mar 27 8:00 PM, Binningen, Weather by CustomWeather, © 2015

Note: Actual official high and low records may vary slightly from our data, if they occured in-between our weather recording intervals... More about our weather records

Advertising

Binningen weather history for previous 24 hours

 ConditionsComfort  
Time TempWeatherWind HumidityBarometerVisibility
8:00 PM
Fri, Mar 27
46 °FPassing clouds.7 mph57%30.25 "Hg19 mi
7:00 PM49 °FPassing clouds.9 mph51%30.23 "Hg19 mi
6:00 PM51 °FPassing clouds.5 mph51%30.20 "Hg19 mi
5:00 PM53 °FPartly sunny.10 mph43%30.18 "Hg12 mi
4:00 PM54 °FPartly sunny.15 mph44%30.16 "Hg12 mi
3:00 PM54 °FPartly sunny.10 mph43%30.15 "Hg12 mi
2:00 PM54 °FPartly sunny.12 mph52%30.15 "Hg12 mi
1:00 PM51 °FOvercast.9 mph63%30.16 "Hg12 mi
12:00 PM49 °FOvercast.12 mph72%30.16 "Hg7 mi
11:00 AM49 °FOvercast.8 mph66%30.15 "Hg6 mi
10:00 AM48 °FOvercast.8 mph69%30.14 "Hg6 mi
9:00 AM46 °FPartly sunny.10 mph80%30.13 "Hg6 mi
8:00 AM44 °FPartly sunny.9 mph87%30.11 "Hg5 mi
7:00 AM42 °FOvercast.5 mph91%30.09 "Hg6 mi
6:00 AM41 °FLight rain. Overcast.2 mph93%30.06 "Hg4 mi
5:00 AM41 °FLight rain. Overcast.3 mph93%30.04 "Hg6 mi
3:00 AM43 °FOvercast.6 mph81%30.01 "Hg12 mi
2:00 AM42 °FOvercast.7 mph85%30.01 "Hg8 mi
1:00 AM42 °FOvercast.1 mph85%30.00 "Hg9 mi
12:00 AM42 °FOvercast.3 mph84%29.99 "Hg9 mi
11:00 PM
Thu, Mar 26
43 °FLight rain. Overcast.5 mph80%29.97 "Hg16 mi
Weather by CustomWeather, © 2015

See weather overviewHow to use our weather pages